Hourly Data Report for May 29, 2016

All times are specified in Local Standard Time (LST). Add 1 hour to adjust for Daylight Saving Time where and when it is observed.

LA RONGE RCS
SASKATCHEWAN

55°08'47.020" N
105°16'13.030" W
378.60 m
4064149
71586
XOX

Download Data

Hourly Data (May 2016)
Hourly Data Report for May 29, 2016
TIME Temp Definition
°C
Dew Point Definition
°C
Rel Hum Definition
%
Wind Dir Definition
10's deg

Wind Spd Definition
km/h
Visibility Definition
km
Stn Press Definition
kPa
Hmdx Definition


Wind Chill Definition


Weather Definition


00:00 9.8 6.5 80 12 10   96.98     LegendNANA
01:00 9.7 6.3 79 11 6   96.96     LegendNANA
02:00 9.6 6.3 80 12 9   96.95     LegendNANA
03:00 9.5 6.2 80 12 11   96.93     LegendNANA
04:00 9.3 6.1 80 12 8   96.90     LegendNANA
05:00 9.2 6.0 80 12 10   96.89     LegendNANA
06:00 9.3 5.8 79 12 12   96.90     LegendNANA
07:00 9.4 5.9 79 11 13   96.93     LegendNANA
08:00 9.7 5.6 76 11 14   96.93     LegendNANA
09:00 9.9 5.8 75 14 16   96.94     LegendNANA
10:00 11.1 5.8 70 12 19   96.92     LegendNANA
11:00 11.0 5.7 70 12 20   96.92     LegendNANA
12:00 11.1 6.0 70 12 14   96.92     LegendNANA
13:00 12.0 5.7 65 14 15   96.92     LegendNANA
14:00 11.9 5.4 64 16 13   96.93     LegendNANA
15:00 12.5 5.8 64 16 14   96.93     LegendNANA
16:00 12.8 5.0 59 14 15   96.92     LegendNANA
17:00 13.5 5.3 58 15 13   96.91     LegendNANA
18:00 13.8 5.1 56 15 9   96.90     LegendNANA
19:00 13.9 5.2 56 12 8   96.89     LegendNANA
20:00 13.3 4.9 57 5 7   96.89     LegendNANA
21:00 11.9 5.3 64   0   96.90     LegendNANA
22:00 8.9 4.9 76 35 2   96.93     LegendNANA
23:00 7.0 4.6 85 29 1   96.93     LegendNANA

Notes on Data Quality.

Legend

  • E = Estimated
  • M = Missing
  • NA = Not Available
Date modified: